Tracking 20475 objects as of 27-Feb-2020
HD Live streaming from Space Station
objects crossing your sky now

USA 167

Track USA 167 now!
USA 167 is classified as:


NORAD ID: 27691
Int'l Code: 2003-008A
Perigee: 35,778.7 km
Apogee: 35,808.6 km
Inclination: 6.4 °
Period: 1,436.1 minutes
Semi major axis: 42164 km
RCS: Unknown
Launch date: March 11, 2003
Source: United States (US)
Launch site: AIR FORCE EASTERN TEST RANGE (AFETR)

Super High Frequency (SHF) for U.S. government and military; sophisticated survivability enhancement; worldwide, longhaul coverage; X-band.
aabbcc
Your satellite tracking list
Your tracking list is empty




NASA's NSSDC Master Catalog

Two Line Element Set (TLE):
1 27691U 03008A   20057.24487072 +.00000052 +00000-0 +00000-0 0  9991
2 27691 006.4356 059.4667 0003541 318.6815 095.4776 01.00272074009867
Source of the keplerian elements: McCants